Time,TemperatureF,DewpointF,PressureIn,WindDirection,WindDirectionDegrees,WindSpeedMPH,WindSpeedGustMPH,Humidity,HourlyPrecipIn,Conditions,Clouds,dailyrainin,SoftwareType,DateUTC
2013-02-27 00:02:00,9.5,21.4,24.05,SSW,202,0.0,4.0,22,-99.99,,,-99.99,meteohub,2013-02-27 07:02:00,
2013-02-27 00:07:00,9.3,21.2,24.05,SSW,202,0.0,2.0,22,-99.99,,,-99.99,meteohub,2013-02-27 07:07:00,
2013-02-27 00:12:00,9.3,21.2,24.05,SW,223,4.0,4.0,22,-99.99,,,-99.99,meteohub,2013-02-27 07:12:00,
2013-02-27 00:17:00,9.5,21.6,24.05,SW,222,3.0,4.0,22,-99.99,,,-99.99,meteohub,2013-02-27 07:17:00,
2013-02-27 00:22:00,9.5,21.6,24.05,SW,220,3.0,4.0,22,-99.99,,,-99.99,meteohub,2013-02-27 07:22:00,
2013-02-27 00:27:00,9.3,21.4,24.05,SW,220,0.0,4.0,22,-99.99,,,-99.99,meteohub,2013-02-27 07:27:00,
2013-02-27 00:32:00,9.3,21.2,24.05,SW,220,0.0,5.0,22,-99.99,,,-99.99,meteohub,2013-02-27 07:32:00,
2013-02-27 00:37:00,9.5,21.0,24.05,SSE,159,4.0,4.0,22,-99.99,,,-99.99,meteohub,2013-02-27 07:37:00,
2013-02-27 00:42:00,9.3,21.6,24.05,South,190,4.0,4.0,22,-99.99,,,-99.99,meteohub,2013-02-27 07:42:00,
2013-02-27 00:47:00,9.5,20.8,24.05,SSW,201,4.0,4.0,21,-99.99,,,-99.99,meteohub,2013-02-27 07:47:00,
2013-02-27 00:52:00,9.5,21.6,24.05,SSW,201,2.0,4.0,22,-99.99,,,-99.99,meteohub,2013-02-27 07:52:00,
2013-02-27 00:57:00,9.7,21.4,24.05,SSW,201,4.0,4.0,22,-99.99,,,-99.99,meteohub,2013-02-27 07:57:00,
2013-02-27 01:02:00,9.7,21.0,24.05,SSW,201,0.0,4.0,22,-99.99,,,-99.99,meteohub,2013-02-27 08:02:00,
2013-02-27 01:07:00,9.7,21.0,24.05,South,172,0.0,5.0,22,-99.99,,,-99.99,meteohub,2013-02-27 08:07:00,
2013-02-27 01:12:00,9.3,21.6,24.05,SSE,150,4.0,5.0,22,-99.99,,,-99.99,meteohub,2013-02-27 08:12:00,
2013-02-27 01:17:00,9.3,20.7,24.05,South,184,0.0,5.0,21,-99.99,,,-99.99,meteohub,2013-02-27 08:17:00,
2013-02-27 01:22:00,9.3,21.4,24.05,South,178,0.0,5.0,22,-99.99,,,-99.99,meteohub,2013-02-27 08:22:00,
2013-02-27 01:27:00,9.5,21.2,24.05,South,178,0.0,5.0,22,-99.99,,,-99.99,meteohub,2013-02-27 08:27:00,
2013-02-27 01:32:00,9.5,21.0,24.05,South,189,4.0,5.0,22,-99.99,,,-99.99,meteohub,2013-02-27 08:32:00,
2013-02-27 01:37:00,9.5,21.0,24.05,South,189,3.0,4.0,22,-99.99,,,-99.99,meteohub,2013-02-27 08:37:00,
2013-02-27 01:42:00,9.7,21.6,24.05,South,189,3.0,4.0,22,-99.99,,,-99.99,meteohub,2013-02-27 08:42:00,
2013-02-27 01:47:00,9.9,21.6,24.05,South,189,0.0,4.0,22,-99.99,,,-99.99,meteohub,2013-02-27 08:47:00,
2013-02-27 01:52:00,10.0,21.4,24.05,South,189,0.0,4.0,22,-99.99,,,-99.99,meteohub,2013-02-27 08:52:00,
2013-02-27 01:57:00,10.2,21.0,24.05,South,189,0.0,4.0,22,-99.99,,,-99.99,meteohub,2013-02-27 08:57:00,
2013-02-27 02:02:00,10.4,21.0,24.05,South,189,0.0,4.0,22,-99.99,,,-99.99,meteohub,2013-02-27 09:02:00,
2013-02-27 02:07:00,10.4,21.4,24.05,South,189,0.0,0.0,22,-99.99,,,-99.99,meteohub,2013-02-27 09:07:00,
2013-02-27 02:12:00,10.4,20.7,24.05,South,189,0.0,0.0,21,-99.99,,,-99.99,meteohub,2013-02-27 09:12:00,
2013-02-27 02:17:00,10.6,21.6,24.05,South,189,0.0,0.0,22,-99.99,,,-99.99,meteohub,2013-02-27 09:17:00,
2013-02-27 02:22:00,10.8,21.4,24.05,South,189,0.0,0.0,22,-99.99,,,-99.99,meteohub,2013-02-27 09:22:00,
2013-02-27 02:27:00,10.8,21.0,24.05,South,189,0.0,0.0,22,-99.99,,,-99.99,meteohub,2013-02-27 09:27:00,
2013-02-27 02:32:00,10.9,21.0,24.05,South,189,0.0,0.0,22,-99.99,,,-99.99,meteohub,2013-02-27 09:32:00,
2013-02-27 02:37:00,10.9,21.4,24.05,South,189,0.0,0.0,22,-99.99,,,-99.99,meteohub,2013-02-27 09:37:00,
2013-02-27 02:42:00,10.9,20.7,24.05,South,189,0.0,0.0,21,-99.99,,,-99.99,meteohub,2013-02-27 09:42:00,
2013-02-27 02:47:00,11.1,21.6,24.05,South,189,0.0,0.0,22,-99.99,,,-99.99,meteohub,2013-02-27 09:47:00,
2013-02-27 02:52:00,11.1,21.2,24.05,South,189,0.0,0.0,22,-99.99,,,-99.99,meteohub,2013-02-27 09:52:00,
2013-02-27 02:57:00,11.3,21.0,24.05,South,189,0.0,0.0,22,-99.99,,,-99.99,meteohub,2013-02-27 09:57:00,
2013-02-27 03:02:00,11.5,21.0,24.05,South,189,0.0,0.0,22,-99.99,,,-99.99,meteohub,2013-02-27 10:02:00,
2013-02-27 03:07:00,11.8,20.7,24.05,South,189,0.0,0.0,21,-99.99,,,-99.99,meteohub,2013-02-27 10:07:00,
2013-02-27 03:12:00,12.2,20.7,24.05,South,189,0.0,0.0,21,-99.99,,,-99.99,meteohub,2013-02-27 10:12:00,
2013-02-27 03:17:00,12.6,21.4,24.05,South,189,0.0,0.0,22,-99.99,,,-99.99,meteohub,2013-02-27 10:17:00,
2013-02-27 03:22:00,12.2,21.2,24.05,South,189,0.0,0.0,22,-99.99,,,-99.99,meteohub,2013-02-27 10:22:00,
2013-02-27 03:28:00,11.8,21.0,24.05,South,189,0.0,0.0,22,-99.99,,,-99.99,meteohub,2013-02-27 10:28:00,
2013-02-27 03:33:00,11.7,21.6,24.05,South,189,0.0,0.0,22,-99.99,,,-99.99,meteohub,2013-02-27 10:33:00,
2013-02-27 03:38:00,11.3,20.8,24.05,South,189,0.0,0.0,21,-99.99,,,-99.99,meteohub,2013-02-27 10:38:00,
2013-02-27 03:43:00,11.3,21.6,24.05,South,189,0.0,0.0,22,-99.99,,,-99.99,meteohub,2013-02-27 10:43:00,
2013-02-27 03:49:00,11.3,21.2,24.05,South,189,4.0,0.0,22,-99.99,,,-99.99,meteohub,2013-02-27 10:49:00,
2013-02-27 03:54:00,11.5,21.0,24.05,South,189,4.0,5.0,22,-99.99,,,-99.99,meteohub,2013-02-27 10:54:00,
2013-02-27 03:59:00,11.5,21.2,24.05,South,190,4.0,5.0,22,-99.99,,,-99.99,meteohub,2013-02-27 10:59:00,
2013-02-27 04:04:00,11.7,20.8,24.05,South,190,3.0,5.0,21,-99.99,,,-99.99,meteohub,2013-02-27 11:04:00,
2013-02-27 04:10:00,12.0,20.7,24.05,South,190,0.0,5.0,21,-99.99,,,-99.99,meteohub,2013-02-27 11:10:00,
2013-02-27 04:15:00,12.4,21.4,24.05,SSW,192,0.0,5.0,22,-99.99,,,-99.99,meteohub,2013-02-27 11:15:00,
2013-02-27 04:20:00,12.9,21.2,24.05,SSW,192,0.0,4.0,22,-99.99,,,-99.99,meteohub,2013-02-27 11:20:00,
2013-02-27 04:25:00,12.7,21.0,24.05,SSW,192,0.0,0.0,22,-99.99,,,-99.99,meteohub,2013-02-27 11:25:00,
2013-02-27 04:31:00,12.6,20.7,24.08,SSW,192,0.0,0.0,21,-99.99,,,-99.99,meteohub,2013-02-27 11:31:00,
2013-02-27 04:36:00,12.9,20.7,24.08,SSW,192,0.0,0.0,21,-99.99,,,-99.99,meteohub,2013-02-27 11:36:00,
2013-02-27 04:41:00,12.7,21.6,24.08,SSW,192,0.0,0.0,22,-99.99,,,-99.99,meteohub,2013-02-27 11:41:00,
2013-02-27 04:46:00,12.6,21.2,24.08,SSW,192,0.0,0.0,22,-99.99,,,-99.99,meteohub,2013-02-27 11:46:00,
2013-02-27 04:51:00,12.4,21.0,24.08,SSW,192,0.0,0.0,22,-99.99,,,-99.99,meteohub,2013-02-27 11:51:00,
2013-02-27 04:57:00,12.6,21.2,24.08,SSW,192,0.0,0.0,22,-99.99,,,-99.99,meteohub,2013-02-27 11:57:00,
2013-02-27 05:02:00,12.6,20.7,24.08,SSW,192,0.0,0.0,21,-99.99,,,-99.99,meteohub,2013-02-27 12:02:00,
2013-02-27 05:07:00,12.7,21.6,24.08,SSW,192,0.0,0.0,22,-99.99,,,-99.99,meteohub,2013-02-27 12:07:00,
2013-02-27 05:12:00,12.9,21.4,24.08,SSW,192,0.0,0.0,22,-99.99,,,-99.99,meteohub,2013-02-27 12:12:00,
2013-02-27 05:17:00,13.5,21.0,24.08,SSW,192,0.0,0.0,22,-99.99,,,-99.99,meteohub,2013-02-27 12:17:00,
2013-02-27 05:23:00,13.3,21.2,24.08,SSW,192,3.0,0.0,22,-99.99,,,-99.99,meteohub,2013-02-27 12:23:00,
2013-02-27 05:28:00,12.7,20.8,24.08,South,191,3.0,0.0,21,-99.99,,,-99.99,meteohub,2013-02-27 12:28:00,
2013-02-27 05:33:00,12.6,20.8,24.08,South,191,0.0,0.0,21,-99.99,,,-99.99,meteohub,2013-02-27 12:33:00,
2013-02-27 05:38:00,12.6,21.6,24.08,South,191,0.0,4.0,22,-99.99,,,-99.99,meteohub,2013-02-27 12:38:00,
2013-02-27 05:44:00,12.4,21.4,24.08,South,191,3.0,4.0,22,-99.99,,,-99.99,meteohub,2013-02-27 12:44:00,
2013-02-27 05:49:00,12.4,21.0,24.08,South,191,0.0,3.0,22,-99.99,,,-99.99,meteohub,2013-02-27 12:49:00,
2013-02-27 05:54:00,12.6,21.4,24.08,South,191,3.0,3.0,22,-99.99,,,-99.99,meteohub,2013-02-27 12:54:00,
2013-02-27 06:00:00,12.6,20.8,24.08,South,191,2.0,3.0,21,-99.99,,,-99.99,meteohub,2013-02-27 13:00:00,
2013-02-27 06:05:00,12.6,20.7,24.08,South,191,3.0,3.0,21,-99.99,,,-99.99,meteohub,2013-02-27 13:05:00,
2013-02-27 06:10:00,12.6,21.6,24.08,South,191,0.0,3.0,22,-99.99,,,-99.99,meteohub,2013-02-27 13:10:00,
2013-02-27 06:15:00,12.7,21.2,24.08,South,190,3.0,4.0,22,-99.99,,,-99.99,meteohub,2013-02-27 13:15:00,
2013-02-27 06:21:00,12.7,21.0,24.08,South,190,0.0,4.0,22,-99.99,,,-99.99,meteohub,2013-02-27 13:21:00,
2013-02-27 06:26:00,12.7,20.7,24.08,South,190,3.0,4.0,21,-99.99,,,-99.99,meteohub,2013-02-27 13:26:00,
2013-02-27 06:31:00,13.1,21.6,24.08,South,190,3.0,4.0,21,-99.99,,,-99.99,meteohub,2013-02-27 13:31:00,
2013-02-27 06:37:00,13.1,21.7,24.08,South,190,0.0,4.0,21,-99.99,,,-99.99,meteohub,2013-02-27 13:37:00,
2013-02-27 06:42:00,13.3,21.4,24.08,South,190,0.0,4.0,21,-99.99,,,-99.99,meteohub,2013-02-27 13:42:00,
2013-02-27 06:47:00,13.1,21.0,24.08,SSW,192,4.0,4.0,21,-99.99,,,-99.99,meteohub,2013-02-27 13:47:00,
2013-02-27 06:52:00,13.6,21.7,24.08,WNW,296,4.0,5.0,21,-99.99,,,-99.99,meteohub,2013-02-27 13:52:00,
2013-02-27 06:58:00,14.4,22.6,24.08,WSW,246,4.0,5.0,21,-99.99,,,-99.99,meteohub,2013-02-27 13:58:00,
2013-02-27 07:03:00,14.7,22.6,24.11,West,281,4.0,5.0,21,-99.99,,,-99.99,meteohub,2013-02-27 14:03:00,
2013-02-27 07:08:00,15.1,22.5,24.11,WNW,294,4.0,6.0,21,-99.99,,,-99.99,meteohub,2013-02-27 14:08:00,
2013-02-27 07:13:00,15.3,22.3,24.11,WNW,294,3.0,6.0,21,-99.99,,,-99.99,meteohub,2013-02-27 14:13:00,
2013-02-27 07:19:00,15.4,22.3,24.08,WNW,302,3.0,6.0,21,-99.99,,,-99.99,meteohub,2013-02-27 14:19:00,
2013-02-27 07:24:00,15.4,22.1,24.08,WNW,288,3.0,6.0,21,-99.99,,,-99.99,meteohub,2013-02-27 14:24:00,
2013-02-27 07:29:00,15.4,22.1,24.11,WNW,301,4.0,6.0,21,-99.99,,,-99.99,meteohub,2013-02-27 14:29:00,
2013-02-27 07:35:00,16.2,22.3,24.11,WNW,298,3.0,4.0,21,-99.99,,,-99.99,meteohub,2013-02-27 14:35:00,
2013-02-27 07:40:00,16.7,22.3,24.11,West,277,4.0,4.0,21,-99.99,,,-99.99,meteohub,2013-02-27 14:40:00,
2013-02-27 07:45:00,16.9,22.5,24.11,WNW,293,3.0,4.0,21,-99.99,,,-99.99,meteohub,2013-02-27 14:45:00,
2013-02-27 07:50:00,16.9,22.5,24.11,West,276,4.0,4.0,21,-99.99,,,-99.99,meteohub,2013-02-27 14:50:00,
2013-02-27 07:56:00,17.6,22.6,24.11,West,278,3.0,4.0,21,-99.99,,,-99.99,meteohub,2013-02-27 14:56:00,
2013-02-27 08:01:00,18.0,23.5,24.11,WNW,299,0.0,5.0,21,-99.99,,,-99.99,meteohub,2013-02-27 15:01:00,
2013-02-27 08:06:00,18.1,22.8,24.11,WNW,293,0.0,5.0,20,-99.99,,,-99.99,meteohub,2013-02-27 15:06:00,
2013-02-27 08:12:00,18.5,22.5,24.11,WNW,291,0.0,4.0,20,-99.99,,,-99.99,meteohub,2013-02-27 15:12:00,
2013-02-27 08:17:00,18.7,23.5,24.11,WNW,291,0.0,4.0,21,-99.99,,,-99.99,meteohub,2013-02-27 15:17:00,
2013-02-27 08:22:00,18.0,23.2,24.11,WNW,291,0.0,0.0,21,-99.99,,,-99.99,meteohub,2013-02-27 15:22:00,
2013-02-27 08:27:00,16.7,23.0,24.11,WNW,291,0.0,0.0,21,-99.99,,,-99.99,meteohub,2013-02-27 15:27:00,
2013-02-27 08:32:00,16.3,22.8,24.11,WNW,291,0.0,0.0,21,-99.99,,,-99.99,meteohub,2013-02-27 15:32:00,
2013-02-27 08:37:00,16.5,22.8,24.11,WNW,291,0.0,0.0,21,-99.99,,,-99.99,meteohub,2013-02-27 15:37:00,
2013-02-27 08:42:00,16.5,22.8,24.11,WNW,291,0.0,0.0,21,-99.99,,,-99.99,meteohub,2013-02-27 15:42:00,
2013-02-27 08:48:00,16.7,22.8,24.11,WNW,291,0.0,0.0,21,-99.99,,,-99.99,meteohub,2013-02-27 15:48:00,
2013-02-27 08:53:00,16.9,22.8,24.11,WNW,291,0.0,0.0,21,-99.99,,,-99.99,meteohub,2013-02-27 15:53:00,
2013-02-27 08:58:00,17.1,23.0,24.11,WNW,291,0.0,0.0,21,-99.99,,,-99.99,meteohub,2013-02-27 15:58:00,
2013-02-27 09:03:00,17.1,23.2,24.11,WNW,291,0.0,0.0,21,-99.99,,,-99.99,meteohub,2013-02-27 16:03:00,
2013-02-27 09:08:00,17.2,23.2,24.11,WNW,291,0.0,0.0,21,-99.99,,,-99.99,meteohub,2013-02-27 16:08:00,
2013-02-27 09:14:00,17.4,23.4,24.11,SSW,208,0.0,0.0,21,-99.99,,,-99.99,meteohub,2013-02-27 16:14:00,
2013-02-27 09:19:00,17.1,23.4,24.14,SSW,195,2.0,0.0,21,-99.99,,,-99.99,meteohub,2013-02-27 16:19:00,
2013-02-27 09:24:00,17.2,23.4,24.14,SSW,195,3.0,4.0,21,-99.99,,,-99.99,meteohub,2013-02-27 16:24:00,
2013-02-27 09:29:00,17.1,23.4,24.14,SSW,196,0.0,4.0,21,-99.99,,,-99.99,meteohub,2013-02-27 16:29:00,
2013-02-27 09:35:00,16.9,23.2,24.14,SSW,205,4.0,5.0,21,-99.99,,,-99.99,meteohub,2013-02-27 16:35:00,
2013-02-27 09:40:00,17.1,23.2,24.14,SSE,157,5.0,5.0,21,-99.99,,,-99.99,meteohub,2013-02-27 16:40:00,
2013-02-27 09:45:00,17.2,23.2,24.14,SSE,160,3.0,5.0,21,-99.99,,,-99.99,meteohub,2013-02-27 16:45:00,
2013-02-27 09:50:00,17.6,23.2,24.14,South,189,2.0,5.0,21,-99.99,,,-99.99,meteohub,2013-02-27 16:50:00,
2013-02-27 09:55:00,18.1,23.2,24.14,South,176,4.0,5.0,21,-99.99,,,-99.99,meteohub,2013-02-27 16:55:00,
2013-02-27 10:01:00,18.7,23.2,24.14,SSW,193,3.0,5.0,21,-99.99,,,-99.99,meteohub,2013-02-27 17:01:00,
2013-02-27 10:06:00,19.2,23.4,24.14,SSW,193,0.0,4.0,21,-99.99,,,-99.99,meteohub,2013-02-27 17:06:00,
2013-02-27 10:11:00,19.8,23.5,24.14,SSW,193,0.0,4.0,21,-99.99,,,-99.99,meteohub,2013-02-27 17:11:00,
2013-02-27 10:16:00,19.9,22.5,24.14,SSW,193,0.0,4.0,20,-99.99,,,-99.99,meteohub,2013-02-27 17:16:00,
2013-02-27 10:21:00,19.9,22.5,24.14,SSW,193,0.0,3.0,20,-99.99,,,-99.99,meteohub,2013-02-27 17:21:00,
2013-02-27 10:27:00,20.3,22.6,24.14,SSW,193,0.0,0.0,20,-99.99,,,-99.99,meteohub,2013-02-27 17:27:00,
2013-02-27 10:32:00,21.4,22.6,24.14,West,263,3.0,0.0,20,-99.99,,,-99.99,meteohub,2013-02-27 17:32:00,
2013-02-27 10:37:00,23.2,22.6,24.14,NW,315,4.0,4.0,20,-99.99,,,-99.99,meteohub,2013-02-27 17:37:00,
2013-02-27 10:42:00,24.6,22.6,24.14,West,279,3.0,4.0,20,-99.99,,,-99.99,meteohub,2013-02-27 17:42:00,
2013-02-27 10:47:00,25.0,22.8,24.14,WNW,286,4.0,5.0,20,-99.99,,,-99.99,meteohub,2013-02-27 17:47:00,
2013-02-27 10:52:00,25.2,23.4,24.14,NW,324,4.0,5.0,20,-99.99,,,-99.99,meteohub,2013-02-27 17:52:00,
2013-02-27 10:57:00,25.3,23.9,24.14,NW,311,5.0,6.0,20,-99.99,,,-99.99,meteohub,2013-02-27 17:57:00,
2013-02-27 11:03:00,25.7,23.9,24.14,WNW,292,5.0,6.0,20,-99.99,,,-99.99,meteohub,2013-02-27 18:03:00,
2013-02-27 11:08:00,25.9,23.7,24.14,WNW,302,5.0,6.0,20,-99.99,,,-99.99,meteohub,2013-02-27 18:08:00,
2013-02-27 11:13:00,26.1,23.7,24.14,WNW,290,6.0,6.0,20,-99.99,,,-99.99,meteohub,2013-02-27 18:13:00,
2013-02-27 11:18:00,26.1,23.5,24.14,WSW,257,4.0,7.0,20,-99.99,,,-99.99,meteohub,2013-02-27 18:18:00,
2013-02-27 11:24:00,26.4,23.7,24.14,WSW,238,5.0,7.0,20,-99.99,,,-99.99,meteohub,2013-02-27 18:24:00,
2013-02-27 11:29:00,27.0,24.4,24.17,WSW,237,4.0,7.0,20,-99.99,,,-99.99,meteohub,2013-02-27 18:29:00,
2013-02-27 11:34:00,27.0,24.4,24.17,WNW,298,5.0,7.0,20,-99.99,,,-99.99,meteohub,2013-02-27 18:34:00,
2013-02-27 11:39:00,27.1,24.4,24.17,NW,307,5.0,7.0,20,-99.99,,,-99.99,meteohub,2013-02-27 18:39:00,
2013-02-27 11:44:00,27.0,24.4,24.17,WNW,287,5.0,7.0,20,-99.99,,,-99.99,meteohub,2013-02-27 18:44:00,
2013-02-27 11:50:00,27.0,24.4,24.17,WNW,291,9.0,9.0,20,-99.99,,,-99.99,meteohub,2013-02-27 18:50:00,
2013-02-27 11:55:00,27.0,24.4,24.17,WNW,286,6.0,9.0,20,-99.99,,,-99.99,meteohub,2013-02-27 18:55:00,
2013-02-27 12:00:00,27.1,24.4,24.17,WNW,298,4.0,9.0,20,-99.99,,,-99.99,meteohub,2013-02-27 19:00:00,
2013-02-27 12:06:00,27.5,24.3,24.17,NW,304,5.0,9.0,20,-99.99,,,-99.99,meteohub,2013-02-27 19:06:00,
2013-02-27 12:11:00,27.7,24.3,24.17,WNW,303,8.0,9.0,20,-99.99,,,-99.99,meteohub,2013-02-27 19:11:00,
2013-02-27 12:16:00,27.9,24.3,24.17,West,264,6.0,9.0,20,-99.99,,,-99.99,meteohub,2013-02-27 19:16:00,
2013-02-27 12:21:00,27.9,24.3,24.17,WNW,294,6.0,9.0,20,-99.99,,,-99.99,meteohub,2013-02-27 19:21:00,
2013-02-27 12:26:00,28.0,24.3,24.17,WSW,258,6.0,9.0,20,-99.99,,,-99.99,meteohub,2013-02-27 19:26:00,
2013-02-27 12:32:00,28.6,24.3,24.14,WNW,299,6.0,9.0,20,-99.99,,,-99.99,meteohub,2013-02-27 19:32:00,
2013-02-27 12:37:00,28.6,24.3,24.14,NW,304,6.0,9.0,20,-99.99,,,-99.99,meteohub,2013-02-27 19:37:00,
2013-02-27 12:42:00,28.4,24.3,24.14,West,263,8.0,8.0,20,-99.99,,,-99.99,meteohub,2013-02-27 19:42:00,
2013-02-27 12:47:00,28.2,24.3,24.14,NW,314,5.0,8.0,20,-99.99,,,-99.99,meteohub,2013-02-27 19:47:00,
2013-02-27 12:52:00,28.2,24.3,24.14,WNW,300,6.0,8.0,20,-99.99,,,-99.99,meteohub,2013-02-27 19:52:00,
2013-02-27 12:57:00,28.2,24.3,24.14,WNW,286,8.0,8.0,20,-99.99,,,-99.99,meteohub,2013-02-27 19:57:00,
2013-02-27 13:02:00,28.6,24.3,24.14,NNW,327,6.0,8.0,20,-99.99,,,-99.99,meteohub,2013-02-27 20:02:00,
2013-02-27 13:08:00,28.9,24.4,24.14,NW,308,8.0,8.0,20,-99.99,,,-99.99,meteohub,2013-02-27 20:08:00,
2013-02-27 13:13:00,29.5,24.4,24.14,WNW,297,6.0,8.0,20,-99.99,,,-99.99,meteohub,2013-02-27 20:13:00,
2013-02-27 13:18:00,29.5,24.6,24.14,NW,308,8.0,9.0,20,-99.99,,,-99.99,meteohub,2013-02-27 20:18:00,
2013-02-27 13:23:00,29.3,24.6,24.14,NW,312,8.0,9.0,20,-99.99,,,-99.99,meteohub,2013-02-27 20:23:00,
2013-02-27 13:28:00,29.3,24.6,24.14,West,278,6.0,9.0,20,-99.99,,,-99.99,meteohub,2013-02-27 20:28:00,
2013-02-27 13:34:00,29.5,24.6,24.14,NW,307,8.0,9.0,20,-99.99,,,-99.99,meteohub,2013-02-27 20:34:00,
2013-02-27 13:39:00,29.5,24.8,24.14,NW,308,8.0,10.0,20,-99.99,,,-99.99,meteohub,2013-02-27 20:39:00,
2013-02-27 13:44:00,29.1,24.8,24.14,WNW,301,8.0,10.0,20,-99.99,,,-99.99,meteohub,2013-02-27 20:44:00,
2013-02-27 13:49:00,29.1,25.0,24.14,NW,309,8.0,10.0,20,-99.99,,,-99.99,meteohub,2013-02-27 20:49:00,
2013-02-27 13:55:00,29.1,25.0,24.14,NW,311,6.0,10.0,20,-99.99,,,-99.99,meteohub,2013-02-27 20:55:00,
2013-02-27 14:00:00,29.3,25.2,24.14,NNW,327,8.0,10.0,20,-99.99,,,-99.99,meteohub,2013-02-27 21:00:00,
2013-02-27 14:05:00,29.3,25.2,24.14,NW,310,8.0,10.0,20,-99.99,,,-99.99,meteohub,2013-02-27 21:05:00,
2013-02-27 14:10:00,28.8,25.2,24.14,NW,313,10.0,10.0,20,-99.99,,,-99.99,meteohub,2013-02-27 21:10:00,
2013-02-27 14:15:00,28.2,25.2,24.14,NW,321,8.0,11.0,20,-99.99,,,-99.99,meteohub,2013-02-27 21:15:00,
2013-02-27 14:21:00,27.9,25.2,24.14,SW,224,10.0,11.0,20,-99.99,,,-99.99,meteohub,2013-02-27 21:21:00,
2013-02-27 14:26:00,27.7,25.2,24.14,SW,234,8.0,11.0,20,-99.99,,,-99.99,meteohub,2013-02-27 21:26:00,
2013-02-27 14:31:00,27.3,25.2,24.14,SW,216,8.0,11.0,20,-99.99,,,-99.99,meteohub,2013-02-27 21:31:00,
2013-02-27 14:36:00,26.6,25.3,24.14,SW,217,8.0,11.0,20,-99.99,,,-99.99,meteohub,2013-02-27 21:36:00,
2013-02-27 14:42:00,21.9,25.3,24.14,SW,222,10.0,11.0,20,-99.99,,,-99.99,meteohub,2013-02-27 21:42:00,
2013-02-27 14:47:00,21.9,25.3,24.14,SW,221,8.0,11.0,20,-99.99,,,-99.99,meteohub,2013-02-27 21:47:00,
2013-02-27 14:52:00,21.4,25.5,24.14,SSW,213,8.0,11.0,20,-99.99,,,-99.99,meteohub,2013-02-27 21:52:00,
2013-02-27 14:57:00,23.7,25.5,24.14,WSW,244,6.0,11.0,20,-99.99,,,-99.99,meteohub,2013-02-27 21:57:00,
2013-02-27 15:02:00,27.1,25.5,24.14,West,262,8.0,11.0,20,-99.99,,,-99.99,meteohub,2013-02-27 22:02:00,
2013-02-27 15:07:00,27.3,25.5,24.14,WNW,303,8.0,11.0,20,-99.99,,,-99.99,meteohub,2013-02-27 22:07:00,
2013-02-27 15:12:00,27.7,25.5,24.14,NNW,328,9.0,11.0,20,-99.99,,,-99.99,meteohub,2013-02-27 22:12:00,
2013-02-27 15:17:00,27.9,25.3,24.14,West,272,8.0,11.0,20,-99.99,,,-99.99,meteohub,2013-02-27 22:17:00,
2013-02-27 15:22:00,27.9,25.3,24.14,NNW,331,8.0,11.0,20,-99.99,,,-99.99,meteohub,2013-02-27 22:22:00,
2013-02-27 15:27:00,29.3,25.0,24.14,NW,324,8.0,11.0,20,-99.99,,,-99.99,meteohub,2013-02-27 22:27:00,
2013-02-27 15:32:00,30.0,24.8,24.14,NW,315,9.0,11.0,20,-99.99,,,-99.99,meteohub,2013-02-27 22:32:00,
2013-02-27 15:37:00,30.9,24.6,24.14,WNW,285,6.0,11.0,20,-99.99,,,-99.99,meteohub,2013-02-27 22:37:00,
2013-02-27 15:42:00,31.3,24.6,24.14,SW,233,8.0,11.0,20,-99.99,,,-99.99,meteohub,2013-02-27 22:42:00,
2013-02-27 15:47:00,31.6,25.0,24.14,WNW,295,8.0,9.0,20,-99.99,,,-99.99,meteohub,2013-02-27 22:47:00,
2013-02-27 15:52:00,31.1,24.8,24.14,NW,310,9.0,9.0,20,-99.99,,,-99.99,meteohub,2013-02-27 22:52:00,
2013-02-27 15:57:00,30.4,24.8,24.14,NW,325,6.0,10.0,20,-99.99,,,-99.99,meteohub,2013-02-27 22:57:00,
2013-02-27 16:02:00,29.8,24.6,24.14,West,269,8.0,10.0,20,-99.99,,,-99.99,meteohub,2013-02-27 23:02:00,
2013-02-27 16:07:00,28.9,24.6,24.14,West,281,7.0,9.0,20,-99.99,,,-99.99,meteohub,2013-02-27 23:07:00,
2013-02-27 16:12:00,28.4,24.6,24.14,NW,320,8.0,9.0,20,-99.99,,,-99.99,meteohub,2013-02-27 23:12:00,
2013-02-27 16:17:00,27.9,25.0,24.14,NW,315,8.0,9.0,20,-99.99,,,-99.99,meteohub,2013-02-27 23:17:00,
2013-02-27 16:22:00,27.0,24.8,24.14,WSW,254,6.0,9.0,20,-99.99,,,-99.99,meteohub,2013-02-27 23:22:00,
2013-02-27 16:27:00,27.3,24.6,24.14,WNW,285,6.0,10.0,20,-99.99,,,-99.99,meteohub,2013-02-27 23:27:00,
2013-02-27 16:32:00,28.2,24.4,24.14,WNW,301,7.0,10.0,20,-99.99,,,-99.99,meteohub,2013-02-27 23:32:00,
2013-02-27 16:37:00,28.9,24.6,24.14,WNW,298,5.0,10.0,20,-99.99,,,-99.99,meteohub,2013-02-27 23:37:00,
2013-02-27 16:42:00,29.3,24.8,24.14,WNW,301,8.0,10.0,20,-99.99,,,-99.99,meteohub,2013-02-27 23:42:00,
2013-02-27 16:47:00,28.6,24.6,24.14,NW,308,7.0,9.0,20,-99.99,,,-99.99,meteohub,2013-02-27 23:47:00,
2013-02-27 16:52:00,27.9,24.6,24.14,NW,307,8.0,9.0,20,-99.99,,,-99.99,meteohub,2013-02-27 23:52:00,
2013-02-27 16:57:00,27.5,24.3,24.14,West,260,6.0,9.0,20,-99.99,,,-99.99,meteohub,2013-02-27 23:57:00,
2013-02-27 17:02:00,27.1,24.4,24.11,WNW,301,8.0,9.0,20,-99.99,,,-99.99,meteohub,2013-02-28 00:02:00,
2013-02-27 17:07:00,26.1,24.8,24.11,NW,306,8.0,9.0,20,-99.99,,,-99.99,meteohub,2013-02-28 00:07:00,
2013-02-27 17:12:00,24.1,24.6,24.11,NW,308,8.0,9.0,20,-99.99,,,-99.99,meteohub,2013-02-28 00:12:00,
2013-02-27 17:17:00,23.4,24.6,24.11,WNW,294,6.0,10.0,20,-99.99,,,-99.99,meteohub,2013-02-28 00:17:00,
2013-02-27 17:22:00,22.6,24.3,24.11,WNW,296,6.0,10.0,20,-99.99,,,-99.99,meteohub,2013-02-28 00:22:00,
2013-02-27 17:27:00,22.3,24.6,24.11,WNW,291,5.0,9.0,20,-99.99,,,-99.99,meteohub,2013-02-28 00:27:00,
2013-02-27 17:33:00,22.1,24.8,24.14,WNW,299,6.0,9.0,20,-99.99,,,-99.99,meteohub,2013-02-28 00:33:00,
2013-02-27 17:38:00,21.7,24.6,24.14,NW,313,5.0,8.0,20,-99.99,,,-99.99,meteohub,2013-02-28 00:38:00,
2013-02-27 17:43:00,21.4,24.3,24.14,WNW,302,4.0,8.0,20,-99.99,,,-99.99,meteohub,2013-02-28 00:43:00,
2013-02-27 17:48:00,21.2,24.4,24.14,WNW,301,5.0,8.0,20,-99.99,,,-99.99,meteohub,2013-02-28 00:48:00,
2013-02-27 17:53:00,20.8,25.2,24.14,WNW,299,5.0,8.0,20,-99.99,,,-99.99,meteohub,2013-02-28 00:53:00,
2013-02-27 17:59:00,20.7,25.2,24.14,WNW,303,5.0,7.0,20,-99.99,,,-99.99,meteohub,2013-02-28 00:59:00,
2013-02-27 18:04:00,20.3,25.0,24.14,NW,309,6.0,6.0,20,-99.99,,,-99.99,meteohub,2013-02-28 01:04:00,
2013-02-27 18:09:00,19.8,25.0,24.14,NW,312,6.0,6.0,20,-99.99,,,-99.99,meteohub,2013-02-28 01:09:00,
2013-02-27 18:14:00,19.6,25.0,24.14,NW,312,5.0,7.0,20,-99.99,,,-99.99,meteohub,2013-02-28 01:14:00,
2013-02-27 18:19:00,19.8,25.0,24.14,WNW,303,6.0,7.0,20,-99.99,,,-99.99,meteohub,2013-02-28 01:19:00,
2013-02-27 18:25:00,19.4,25.0,24.14,NW,306,5.0,7.0,20,-99.99,,,-99.99,meteohub,2013-02-28 01:25:00,
2013-02-27 18:30:00,19.2,24.8,24.14,NW,308,5.0,6.0,20,-99.99,,,-99.99,meteohub,2013-02-28 01:30:00,
2013-02-27 18:36:00,19.0,24.8,24.14,NW,305,5.0,6.0,20,-99.99,,,-99.99,meteohub,2013-02-28 01:36:00,
2013-02-27 18:41:00,19.0,24.6,24.14,WNW,296,5.0,6.0,20,-99.99,,,-99.99,meteohub,2013-02-28 01:41:00,
2013-02-27 18:46:00,18.7,24.6,24.14,NW,307,6.0,6.0,20,-99.99,,,-99.99,meteohub,2013-02-28 01:46:00,
2013-02-27 18:51:00,18.5,24.6,24.14,West,279,6.0,6.0,20,-99.99,,,-99.99,meteohub,2013-02-28 01:51:00,
2013-02-27 18:56:00,18.7,24.6,24.14,NW,309,5.0,6.0,20,-99.99,,,-99.99,meteohub,2013-02-28 01:56:00,
2013-02-27 19:02:00,18.9,24.6,24.14,NW,311,5.0,6.0,20,-99.99,,,-99.99,meteohub,2013-02-28 02:02:00,
2013-02-27 19:07:00,19.0,24.6,24.14,WNW,300,4.0,6.0,20,-99.99,,,-99.99,meteohub,2013-02-28 02:07:00,
2013-02-27 19:12:00,19.0,24.6,24.14,NW,314,5.0,6.0,20,-99.99,,,-99.99,meteohub,2013-02-28 02:12:00,
2013-02-27 19:17:00,18.7,24.6,24.14,WNW,301,5.0,6.0,20,-99.99,,,-99.99,meteohub,2013-02-28 02:17:00,
2013-02-27 19:22:00,18.3,24.6,24.14,West,274,4.0,6.0,20,-99.99,,,-99.99,meteohub,2013-02-28 02:22:00,
2013-02-27 19:27:00,18.1,24.6,24.14,NW,304,4.0,6.0,20,-99.99,,,-99.99,meteohub,2013-02-28 02:27:00,
2013-02-27 19:32:00,17.8,24.8,24.14,NW,310,3.0,6.0,20,-99.99,,,-99.99,meteohub,2013-02-28 02:32:00,
2013-02-27 19:37:00,18.0,25.0,24.14,NW,307,3.0,6.0,20,-99.99,,,-99.99,meteohub,2013-02-28 02:37:00,
2013-02-27 19:42:00,18.5,25.2,24.14,NW,305,3.0,6.0,20,-99.99,,,-99.99,meteohub,2013-02-28 02:42:00,
2013-02-27 19:47:00,18.7,25.3,24.17,NW,305,3.0,5.0,20,-99.99,,,-99.99,meteohub,2013-02-28 02:47:00,
2013-02-27 19:53:00,18.5,25.3,24.17,NW,305,3.0,5.0,20,-99.99,,,-99.99,meteohub,2013-02-28 02:53:00,
2013-02-27 19:58:00,18.3,25.3,24.17,NW,305,4.0,4.0,20,-99.99,,,-99.99,meteohub,2013-02-28 02:58:00,
2013-02-27 20:03:00,18.3,25.5,24.17,WNW,303,3.0,4.0,20,-99.99,,,-99.99,meteohub,2013-02-28 03:03:00,
2013-02-27 20:08:00,18.3,25.3,24.17,WNW,297,3.0,5.0,20,-99.99,,,-99.99,meteohub,2013-02-28 03:08:00,
2013-02-27 20:13:00,18.3,25.3,24.17,NW,306,3.0,5.0,20,-99.99,,,-99.99,meteohub,2013-02-28 03:13:00,
2013-02-27 20:19:00,18.3,25.3,24.17,WNW,298,2.0,5.0,20,-99.99,,,-99.99,meteohub,2013-02-28 03:19:00,
2013-02-27 20:24:00,18.1,25.3,24.17,WNW,298,0.0,5.0,20,-99.99,,,-99.99,meteohub,2013-02-28 03:24:00,
2013-02-27 20:29:00,17.4,25.3,24.17,WNW,298,0.0,4.0,20,-99.99,,,-99.99,meteohub,2013-02-28 03:29:00,
2013-02-27 20:34:00,16.5,25.3,24.17,WNW,298,0.0,3.0,20,-99.99,,,-99.99,meteohub,2013-02-28 03:34:00,
2013-02-27 20:39:00,16.0,25.3,24.17,WNW,298,0.0,3.0,20,-99.99,,,-99.99,meteohub,2013-02-28 03:39:00,
2013-02-27 20:45:00,15.4,25.3,24.17,WNW,298,0.0,0.0,20,-99.99,,,-99.99,meteohub,2013-02-28 03:45:00,
2013-02-27 20:50:00,15.3,25.2,24.17,WNW,298,0.0,0.0,20,-99.99,,,-99.99,meteohub,2013-02-28 03:50:00,
2013-02-27 20:55:00,15.3,25.0,24.17,WNW,298,0.0,0.0,20,-99.99,,,-99.99,meteohub,2013-02-28 03:55:00,
2013-02-27 21:00:00,15.4,24.8,24.17,WNW,298,0.0,0.0,20,-99.99,,,-99.99,meteohub,2013-02-28 04:00:00,
2013-02-27 21:05:00,15.1,24.6,24.17,SSW,211,4.0,4.0,20,-99.99,,,-99.99,meteohub,2013-02-28 04:05:00,
2013-02-27 21:11:00,14.9,24.4,24.17,SSW,212,4.0,4.0,20,-99.99,,,-99.99,meteohub,2013-02-28 04:11:00,
2013-02-27 21:16:00,14.9,24.4,24.14,SSW,212,2.0,5.0,20,-99.99,,,-99.99,meteohub,2013-02-28 04:16:00,
2013-02-27 21:21:00,14.9,24.1,24.14,SSW,212,0.0,5.0,20,-99.99,,,-99.99,meteohub,2013-02-28 04:21:00,
2013-02-27 21:26:00,15.1,23.9,24.14,SSW,212,0.0,5.0,20,-99.99,,,-99.99,meteohub,2013-02-28 04:26:00,
2013-02-27 21:32:00,14.9,23.9,24.14,SSW,212,0.0,5.0,20,-99.99,,,-99.99,meteohub,2013-02-28 04:32:00,
2013-02-27 21:37:00,15.1,23.7,24.14,SSW,212,0.0,0.0,20,-99.99,,,-99.99,meteohub,2013-02-28 04:37:00,
2013-02-27 21:42:00,15.1,23.7,24.14,SSW,212,0.0,0.0,20,-99.99,,,-99.99,meteohub,2013-02-28 04:42:00,
2013-02-27 21:47:00,15.3,23.7,24.14,SSW,212,0.0,0.0,20,-99.99,,,-99.99,meteohub,2013-02-28 04:47:00,
2013-02-27 21:52:00,15.1,23.5,24.14,SSW,212,0.0,0.0,20,-99.99,,,-99.99,meteohub,2013-02-28 04:52:00,
2013-02-27 21:57:00,15.1,23.4,24.14,SSW,212,0.0,0.0,20,-99.99,,,-99.99,meteohub,2013-02-28 04:57:00,
2013-02-27 22:00:00,15.1,23.4,24.14,SSW,212,0.0,0.0,20,-99.99,,,-99.99,meteohub,2013-02-28 05:00:00,
2013-02-27 22:01:00,15.1,23.4,24.14,SSW,212,0.0,0.0,20,-99.99,,,-99.99,meteohub,2013-02-28 05:01:00,
2013-02-27 22:03:00,14.9,23.2,24.14,SSW,212,0.0,0.0,20,-99.99,,,-99.99,meteohub,2013-02-28 05:03:00,
2013-02-27 22:09:00,15.3,23.0,24.14,West,265,0.0,0.0,20,-99.99,,,-99.99,meteohub,2013-02-28 05:09:00,
2013-02-27 22:14:00,15.4,23.0,24.14,WSW,241,0.0,0.0,20,-99.99,,,-99.99,meteohub,2013-02-28 05:14:00,
2013-02-27 22:19:00,15.8,22.8,24.14,WSW,241,0.0,0.0,20,-99.99,,,-99.99,meteohub,2013-02-28 05:19:00,
2013-02-27 22:24:00,16.0,22.8,24.14,WSW,241,0.0,0.0,20,-99.99,,,-99.99,meteohub,2013-02-28 05:24:00,
2013-02-27 22:29:00,16.3,22.8,24.14,WSW,241,0.0,0.0,20,-99.99,,,-99.99,meteohub,2013-02-28 05:29:00,
2013-02-27 22:35:00,16.7,22.8,24.14,West,270,0.0,0.0,20,-99.99,,,-99.99,meteohub,2013-02-28 05:35:00,
2013-02-27 22:40:00,16.2,23.0,24.14,West,270,0.0,0.0,20,-99.99,,,-99.99,meteohub,2013-02-28 05:40:00,
2013-02-27 22:45:00,16.0,23.0,24.14,West,270,0.0,0.0,20,-99.99,,,-99.99,meteohub,2013-02-28 05:45:00,
2013-02-27 22:50:00,16.2,23.0,24.14,West,270,0.0,0.0,20,-99.99,,,-99.99,meteohub,2013-02-28 05:50:00,
2013-02-27 22:55:00,15.8,23.0,24.14,West,270,0.0,0.0,20,-99.99,,,-99.99,meteohub,2013-02-28 05:55:00,
2013-02-27 23:01:00,15.4,22.8,24.14,SW,233,0.0,0.0,20,-99.99,,,-99.99,meteohub,2013-02-28 06:01:00,
2013-02-27 23:06:00,15.8,22.8,24.14,WNW,303,3.0,0.0,20,-99.99,,,-99.99,meteohub,2013-02-28 06:06:00,
2013-02-27 23:11:00,16.5,22.6,24.14,WSW,254,3.0,0.0,20,-99.99,,,-99.99,meteohub,2013-02-28 06:11:00,
2013-02-27 23:16:00,16.7,22.5,24.14,WSW,238,3.0,4.0,20,-99.99,,,-99.99,meteohub,2013-02-28 06:16:00,
2013-02-27 23:21:00,16.7,23.5,24.14,West,281,3.0,4.0,21,-99.99,,,-99.99,meteohub,2013-02-28 06:21:00,
2013-02-27 23:27:00,17.1,23.2,24.14,WNW,285,3.0,4.0,21,-99.99,,,-99.99,meteohub,2013-02-28 06:27:00,
2013-02-27 23:32:00,17.2,23.0,24.14,WSW,257,3.0,4.0,21,-99.99,,,-99.99,meteohub,2013-02-28 06:32:00,
2013-02-27 23:37:00,17.1,22.8,24.14,WSW,242,3.0,4.0,21,-99.99,,,-99.99,meteohub,2013-02-28 06:37:00,
2013-02-27 23:42:00,16.7,22.8,24.14,NW,309,4.0,4.0,21,-99.99,,,-99.99,meteohub,2013-02-28 06:42:00,
2013-02-27 23:47:00,16.9,22.6,24.11,West,270,3.0,4.0,21,-99.99,,,-99.99,meteohub,2013-02-28 06:47:00,
2013-02-27 23:52:00,16.7,22.6,24.11,WSW,238,3.0,4.0,21,-99.99,,,-99.99,meteohub,2013-02-28 06:52:00,
2013-02-27 23:57:00,16.0,22.6,24.11,WSW,237,0.0,4.0,21,-99.99,,,-99.99,meteohub,2013-02-28 06:57:00,